sat.trackr.live / text

‹ back to catalog

STARLINK-5504

NORAD 57262 · 2023-094AW

PAYLOAD ACTIVE UNKNOWN

§ Identity

Operator
Country
US
Launch date
2023-07-07
Launch site
AFWTR
Launch vehicle
Mass (kg)
RCS (m²)

Purposes: comms

External: N2YO · Heavens-Above · Gunter

§ Orbital elements

Epoch: 2026-05-24T19:21:36.870336Z

Period
94.27 min
Inclination
43.0025°
Eccentricity
0.0001168
Mean motion
15.27573957 rev/d
Perigee alt
482.3 km
Apogee alt
483.9 km
Semi-major
6,861.2 km
B*
2.4894e-5
RAAN
309.7924°
Arg perigee
267.0914°
Mean anomaly
92.9804°
Rev number
15,888

§ Raw data

STARLINK-55041 57262U 23094AW  26144.80667674  .00000423  00000+0  24894-4 0  99902 57262  43.0025 309.7924 0001168 267.0914  92.9804 15.27573957158880

JSON: /api/v1/satellites/57262 · /tle

For live sub-satellite position, see the globe view (requires WebGL).

§ Visibility from observer

Set your observer location to see the next 7 days of passes ≥ 10°. The values pass through the URL so the page stays shareable.

No JS? Fill the form by hand. The geolocation button needs JavaScript.